Weather History for Elkins, WV

Change the Weather History Date:

Tuesday, May 7, 2013

  Actual Average Record
Temperature  
Mean Temperature 56 °F 56 °F  
Max Temperature 61 °F 69 °F 85 °F (1979)
Min Temperature 50 °F 43 °F 20 °F (1970)
Degree Days  
Heating Degree Days 9 10  
Month to date heating degree days 57 73  
Since 1 July heating degree days 5615 5636  
Cooling Degree Days 0 0  
Month to date cooling degree days 0 0  
Year to date cooling degree days 3 3  
Growing Degree Days 6 (Base 50)    
Moisture  
Dew Point 51 °F    
Average Humidity 86    
Maximum Humidity 100    
Minimum Humidity 72    
Precipitation  
Precipitation 1.26 in 0.17 in 2.58 in (1994)
Month to date precipitation 1.30 1.07  
Year to date precipitation 13.88 15.16  
Snow  
Snow 0.00 in - - ()
Month to date snowfall 0.0  
Since 1 September snowfall 77.5  
Snow Depth 0.00 in    
Sea Level Pressure  
Sea Level Pressure 29.96 in    
Wind  
Wind Speed 1 mph (SSW)    
Max Wind Speed 14 mph    
Max Gust Speed 18 mph    
Visibility 7 miles    
Events Rain    
T = Trace of Precipitation, MM = Missing Value Source: NWS Daily Summary

Daily Weather History Graph

Daily Weather History Graph

Search for Another Location

Airport:

Trip Planner

Search our weather history database for the weather conditions in past years. The results will help you decide how hot, cold, wet, or windy it might be!

Date:

Astronomy

May. 07, 2013 Rise Set
Actual Time 6:14 AM EDT 8:17 PM EDT
Civil Twilight 5:45 AM EDT 8:47 PM EDT
Nautical Twilight 5:09 AM EDT 9:23 PM EDT
Astronomical Twilight 4:30 AM EDT 10:02 PM EDT
Moon 4:46 AM EDT (5/7) 6:16 PM EDT (5/7)
Length of Visible Light 15h 02m
Length of Day
14h 03m
Waning Crescent, 5% of the Moon is Illuminated
May 7
Waning Crescent
May 9
New
May 18
First Quarter
May 25
Full
May 31
Last Quarter

Hourly Weather History & Observations

Time (EDT) Temp. Dew Point Humidity Pressure Visibility Wind Dir Wind Speed Gust Speed Precip Events Conditions
12:51 AM 54.0 °F 51.1 °F 90% 29.99 in 10.0 mi Calm Calm - 0.01 in   Overcast
1:35 AM 53.6 °F 51.8 °F 94% 29.98 in 9.0 mi South 6.9 mph - 0.01 in Rain Light Rain
1:51 AM 54.0 °F 52.0 °F 93% 29.98 in 3.0 mi Calm Calm - 0.05 in Rain Rain
2:08 AM 53.6 °F 51.8 °F 94% 29.97 in 2.5 mi Calm Calm - 0.05 in Rain Rain
2:23 AM 53.6 °F 51.8 °F 94% 29.97 in 4.0 mi Calm Calm - 0.08 in Rain Light Rain
2:51 AM 53.1 °F 51.1 °F 93% 29.97 in 5.0 mi Calm Calm - 0.11 in Rain Rain
2:58 AM 53.6 °F 51.8 °F 94% 29.96 in 5.0 mi Calm Calm - 0.02 in Rain Rain
3:14 AM 53.6 °F 51.8 °F 94% 29.97 in 6.0 mi SSW 3.5 mph - 0.03 in Rain Light Rain
3:27 AM 53.6 °F 51.8 °F 94% 29.96 in 3.0 mi North 4.6 mph - 0.08 in Rain Rain
3:51 AM 54.0 °F 51.1 °F 90% 29.96 in 10.0 mi Calm Calm - 0.09 in Rain Light Rain
4:51 AM 53.1 °F 51.1 °F 93% 29.96 in 8.0 mi Calm Calm - 0.01 in Rain Light Rain
5:29 AM 53.6 °F 51.8 °F 94% 29.96 in 9.0 mi Calm Calm - 0.05 in Rain Light Rain
5:51 AM 53.1 °F 51.1 °F 93% 29.97 in 9.0 mi Calm Calm - 0.05 in   Overcast
6:04 AM 53.6 °F 51.8 °F 94% 29.96 in 4.0 mi Calm Calm - 0.01 in Rain Light Rain
6:39 AM 53.6 °F 51.8 °F 94% 29.96 in 9.0 mi Calm Calm - 0.03 in Rain Light Rain
6:51 AM 53.1 °F 52.0 °F 96% 29.98 in 10.0 mi Calm Calm - 0.03 in   Overcast
7:51 AM 55.0 °F 53.1 °F 93% 29.97 in 10.0 mi WSW 3.5 mph - N/A   Scattered Clouds
8:51 AM 57.0 °F 54.0 °F 89% 29.97 in 10.0 mi Calm Calm - N/A   Overcast
9:04 AM 57.2 °F 53.6 °F 88% 29.97 in 10.0 mi Calm Calm - 0.00 in Rain Light Rain
9:33 AM 57.2 °F 53.6 °F 88% 29.97 in 10.0 mi Variable 3.5 mph - 0.00 in   Overcast
9:51 AM 57.9 °F 51.1 °F 78% 29.97 in 10.0 mi NW 3.5 mph - 0.00 in   Overcast
10:51 AM 57.0 °F 53.1 °F 87% 29.99 in 10.0 mi Calm Calm - 0.01 in   Overcast
11:51 AM 59.0 °F 51.8 °F 77% 29.98 in 10.0 mi Calm Calm - N/A Rain Light Rain
12:51 PM 60.1 °F 52.0 °F 75% 29.96 in 10.0 mi Calm Calm - 0.00 in   Overcast
1:51 PM 60.1 °F 51.1 °F 72% 29.96 in 10.0 mi Calm Calm - N/A   Scattered Clouds
2:51 PM 60.1 °F 51.1 °F 72% 29.96 in 10.0 mi Calm Calm - 0.00 in Rain Light Rain
3:37 PM 53.6 °F 46.4 °F 77% 29.97 in 6.0 mi South 11.5 mph 18.4 mph 0.02 in Rain Rain
3:51 PM 53.1 °F 48.0 °F 83% 29.98 in 5.0 mi SSW 8.1 mph - 0.04 in Rain Light Rain
4:06 PM 51.8 °F 48.2 °F 88% 29.98 in 1.8 mi South 3.5 mph - 0.04 in Rain Rain
4:14 PM 51.8 °F 50.0 °F 94% 29.97 in 2.5 mi SSW 3.5 mph - 0.06 in Rain Light Rain
4:21 PM 53.6 °F 48.2 °F 82% 29.97 in 6.0 mi Calm Calm - 0.07 in Rain Light Rain
4:51 PM 53.1 °F 50.0 °F 89% 29.98 in 6.0 mi Calm Calm - 0.08 in Rain Light Rain
5:15 PM 55.4 °F 50.0 °F 82% 29.95 in 10.0 mi Calm Calm - 0.02 in   Overcast
5:27 PM 55.4 °F 50.0 °F 82% 29.95 in 10.0 mi Calm Calm - 0.02 in   Overcast
5:51 PM 55.0 °F 50.0 °F 83% 29.96 in 10.0 mi Calm Calm - 0.02 in   Mostly Cloudy
6:03 PM 55.4 °F 50.0 °F 82% 29.94 in 10.0 mi Calm Calm - N/A   Mostly Cloudy
6:36 PM 53.6 °F 50.0 °F 88% 29.95 in 6.0 mi Calm Calm - 0.01 in Rain Rain
6:43 PM 53.6 °F 50.0 °F 88% 29.95 in 5.0 mi SSE 3.5 mph - 0.02 in Rain Rain
6:51 PM 53.1 °F 51.1 °F 93% 29.96 in 4.0 mi Calm Calm - 0.04 in Rain Rain
7:01 PM 53.6 °F 51.8 °F 94% 29.95 in 2.5 mi Calm Calm - 0.05 in Rain Heavy Rain
7:09 PM 53.6 °F 51.8 °F 94% 29.95 in 3.0 mi Calm Calm - 0.07 in Rain Rain
7:43 PM 53.6 °F 51.8 °F 94% 29.95 in 10.0 mi SE 3.5 mph - 0.10 in Rain Light Rain
7:51 PM 53.1 °F 51.1 °F 93% 29.96 in 10.0 mi Calm Calm - 0.10 in Rain Light Rain
8:05 PM 53.6 °F 51.8 °F 94% 29.95 in 10.0 mi Calm Calm - 0.00 in Rain Light Rain
8:46 PM 53.6 °F 51.8 °F 94% 29.97 in 6.0 mi Calm Calm - 0.06 in Rain Rain
8:51 PM 53.1 °F 51.1 °F 93% 29.97 in 7.0 mi Calm Calm - 0.06 in Rain Light Rain
9:51 PM 52.0 °F 51.1 °F 97% 29.98 in 4.0 mi Calm Calm - 0.11 in Rain Heavy Rain
10:51 PM 52.0 °F 51.1 °F 97% 29.98 in 2.5 mi Calm Calm - 0.31 in Rain Heavy Rain
11:00 PM 51.8 °F 51.8 °F 100% 29.96 in 4.0 mi Calm Calm - 0.03 in Rain Rain
11:34 PM 51.8 °F 50.0 °F 94% 29.91 in 2.5 mi NW 6.9 mph - 0.14 in Rain Rain
11:43 PM 51.8 °F 51.8 °F 100% 29.92 in 8.0 mi Calm Calm - 0.15 in Rain Light Rain
11:51 PM 52.0 °F 51.1 °F 97% 29.93 in 10.0 mi Calm Calm - 0.15 in   Mostly Cloudy